TimeEDT,TemperatureF,Dew PointF,Humidity,Sea Level PressureIn,VisibilityMPH,Wind Direction,Wind SpeedMPH,Gust SpeedMPH,PrecipitationIn,Events,Conditions,WindDirDegrees,DateUTC
5:53 AM,72.0,55.0,55,29.67,10.0,SW,16.1,28.8,N/A,,Clear,230,2013-05-15 09:53:00
6:53 AM,72.0,54.0,53,29.68,10.0,WSW,15.0,24.2,N/A,,Clear,240,2013-05-15 10:53:00
7:53 AM,73.0,53.1,49,29.70,10.0,WSW,21.9,29.9,N/A,,Clear,250,2013-05-15 11:53:00
8:53 AM,73.9,53.1,48,29.71,10.0,WSW,21.9,29.9,N/A,,Clear,250,2013-05-15 12:53:00
9:53 AM,75.0,54.0,48,29.72,10.0,WSW,20.7,26.5,N/A,,Clear,250,2013-05-15 13:53:00
10:53 AM,77.0,55.0,47,29.73,10.0,WSW,25.3,33.4,N/A,,Clear,250,2013-05-15 14:53:00
11:53 AM,75.9,55.0,48,29.73,10.0,West,19.6,26.5,N/A,,Scattered Clouds,260,2013-05-15 15:53:00
12:53 PM,81.0,57.0,44,29.74,10.0,West,21.9,27.6,0.00,,Clear,270,2013-05-15 16:53:00
1:11 PM,78.8,55.4,44,29.76,5.0,West,19.6,29.9,N/A,,Haze,270,2013-05-15 17:11:00
1:53 PM,84.0,57.0,40,29.75,10.0,West,23.0,31.1,N/A,,Clear,260,2013-05-15 17:53:00
2:53 PM,84.9,51.1,31,29.75,10.0,West,21.9,28.8,N/A,,Clear,270,2013-05-15 18:53:00
3:53 PM,84.9,48.9,29,29.74,10.0,West,23.0,31.1,N/A,,Clear,270,2013-05-15 19:53:00
4:53 PM,84.9,48.0,28,29.73,10.0,West,18.4,29.9,N/A,,Clear,270,2013-05-15 20:53:00
5:53 PM,86.0,50.0,29,29.73,10.0,West,19.6,31.1,N/A,,Clear,280,2013-05-15 21:53:00
6:53 PM,82.9,48.9,31,29.73,10.0,West,16.1,27.6,N/A,,Clear,260,2013-05-15 22:53:00
7:53 PM,79.0,45.0,30,29.74,10.0,NW,6.9,-,N/A,,Clear,310,2013-05-15 23:53:00
8:53 PM,75.0,43.0,32,29.75,10.0,NW,4.6,-,N/A,,Clear,310,2013-05-16 00:53:00
9:53 PM,71.1,44.1,38,29.78,10.0,Calm,Calm,-,N/A,,Clear,0,2013-05-16 01:53:00
10:53 PM,73.0,44.1,35,29.78,10.0,Calm,Calm,-,N/A,,Overcast,0,2013-05-16 02:53:00
11:53 PM,66.9,48.9,52,29.76,10.0,Calm,Calm,-,N/A,,Mostly Cloudy,0,2013-05-16 03:53:00